[[{"header":{"parameterUnit":"m.s-1","parameterCategory":1,"la1":30.2992,"la2":30.254,"lo1":-89.0895,"lo2":-89.0443,"dy":0.0025,"dx":0.0025,"nx":19,"ny":19,"refTime":"2026-05-18T21:00:00:Z","depth":0,"parameterNumber":2,"parameterNumberName":"U-component_of_WINDS"},"data":[0,0,0,-2.511,-2.5111,-2.5164,-2.5164,-2.5248,-2.5249,0,0,0,0,0,0,0,0,0,0,0,-2.5103,-2.5104,-2.511,-2.5111,-2.5164,-2.5164,-2.5248,-2.5249,0,0,0,0,0,0,0,0,0,0,0,-2.5102,-2.5103,-2.5104,-2.5112,-2.5164,-2.5164,-2.5247,-2.5202,0,0,0,0,0,0,0,0,0,0,-2.5149,-2.515,-2.5103,-2.5104,-2.5112,-2.5164,-2.5164,-2.52,-2.5205,-2.5231,0,-2.5254,0,-2.5253,-2.5255,-2.5256,0,0,0,-2.5105,-2.5145,-2.5152,-2.5105,-2.5113,-2.5164,-2.5138,-2.5203,-2.5209,-2.5238,-2.5255,-2.5258,-2.5254,-2.5256,-2.5256,-2.5421,-2.5422,0,0,-2.5103,-2.5117,-2.5148,-2.5156,-2.5147,-2.5137,-2.514,-2.5206,-2.5226,-2.5255,-2.526,-2.5256,-2.5257,-2.5257,-2.542,-2.5421,0,0,0,-2.5098,-2.5115,-2.512,-2.5153,-2.5161,-2.5139,-2.5142,-2.5223,-2.5224,-2.526,-2.5257,-2.5257,-2.5258,-2.5419,-2.542,-2.5485,0,0,0,-2.5096,-2.5113,-2.5119,-2.5128,-2.516,-2.5193,-2.5159,-2.5219,-2.5226,-2.5256,-2.5257,-2.5259,-2.5417,-2.5419,-2.548,-2.5512,0,0,0,-2.5097,-2.5112,-2.5123,-2.5129,-2.5152,-2.5191,-2.5195,-2.522,-2.5224,-2.5256,-2.5259,-2.5417,-2.5419,-2.5476,-2.5506,-2.5559,0,0,0,-2.5101,-2.518,-2.5124,-2.5211,-2.5151,-2.5231,-2.5194,-2.5253,-2.5288,-2.5258,-2.5418,-2.542,-2.5475,-2.5502,-2.5555,-2.5605,-2.5628,0,0,-2.5208,-2.5193,-2.5243,-2.5195,-2.5287,-2.5222,-2.5325,-2.5343,-2.5334,-2.5393,-2.5397,-2.5482,-2.5505,-2.5558,-2.5752,-2.577,0,0,0,-2.5282,-2.5318,-2.5339,-2.5373,-2.5389,-2.5406,-2.5407,-2.5415,-2.5464,-2.5367,-2.5516,-2.5529,-2.556,-2.5583,-2.5598,-2.5624,-2.5432,-2.5432,-2.5431,-2.5452,-2.5436,-2.5518,-2.5509,-2.5542,-2.5544,-2.557,-2.558,-2.5554,-2.559,-2.5607,-2.5726,-2.5754,-2.5765,-2.5792,-2.5633,-2.5634,-2.5634,-2.5634,-2.5607,-2.5655,-2.562,-2.5686,-2.567,-2.5726,-2.5732,-2.5713,-2.5763,-2.5712,-2.5738,-2.5681,-2.5786,-2.5808,-2.5639,-2.5638,-2.5637,-2.5637,-2.5637,-2.5715,-2.5735,-2.5743,-2.5791,-2.583,-2.5819,-2.587,-2.5853,-2.5839,-2.5865,-2.588,-2.5879,-2.5875,-2.5874,-2.5874,-2.5875,-2.5875,-2.5875,-2.5876,-2.5824,-2.5831,-2.5874,-2.59,-2.592,-2.5944,-2.5949,-2.5969,-2.5987,-2.5971,-2.5971,-2.5942,-2.5799,-2.5763,-2.5882,-2.5881,-2.588,-2.5879,-2.5879,-2.5983,-2.5945,-2.6012,-2.6032,-2.6062,-2.6102,-2.6082,-2.6125,-2.6139,-2.6165,-2.6132,-2.6029,-2.6012,-2.6,-2.5969,-2.6135,-2.6135,-2.6135,-2.6135,-2.6073,-2.6064,-2.613,-2.6163,-2.6195,-2.6184,-2.6263,-2.6269,-2.6269,-2.6278,-2.6252,-2.6211,-2.6199,-2.619,-2.6173,-2.6144,-2.6351,-2.6351,-2.6351,-2.617,-2.6163,-2.6232,-2.6231,-2.6253,-2.6274,-2.6348,-2.6389,-2.6382,-2.636,-2.6284,-2.6275,-2.6208,-2.6188,-2.616,-2.6135,-2.6082,0,0]},{"header":{"parameterUnit":"m.s-1","parameterCategory":1,"la1":30.2992,"la2":30.254,"lo1":-89.0895,"lo2":-89.0443,"dy":0.0025,"dx":0.0025,"nx":19,"ny":19,"refTime":"2026-05-18T21:00:00:Z","depth":0,"parameterNumber":3,"parameterNumberName":"V-component_of_WINDS"},"data":[0,0,0,2.5364,2.5365,2.5417,2.5417,2.5468,2.5468,0,0,0,0,0,0,0,0,0,0,0,2.5341,2.5341,2.5364,2.5365,2.5417,2.5417,2.5468,2.5468,0,0,0,0,0,0,0,0,0,0,0,2.5341,2.5341,2.5342,2.5366,2.5417,2.5417,2.5468,2.5434,0,0,0,0,0,0,0,0,0,0,2.5386,2.5358,2.5341,2.5342,2.5366,2.5417,2.5417,2.5433,2.5436,2.5439,0,2.544,0,2.5455,2.5471,2.5471,0,0,0,2.5371,2.5355,2.5376,2.5342,2.5366,2.5417,2.5395,2.5435,2.5439,2.5443,2.5441,2.5443,2.5456,2.5471,2.5471,2.5472,2.5472,0,0,2.5368,2.5346,2.5373,2.5378,2.5371,2.5393,2.5397,2.5437,2.5433,2.5441,2.5445,2.5457,2.5471,2.5472,2.5472,2.5472,0,0,0,2.5356,2.5344,2.5364,2.5376,2.5386,2.5395,2.5399,2.5431,2.544,2.5445,2.5457,2.5472,2.5472,2.5473,2.5472,2.5439,0,0,0,2.5355,2.5337,2.5363,2.535,2.5385,2.541,2.5391,2.5437,2.5442,2.5457,2.5472,2.5473,2.5473,2.5473,2.5441,2.5427,0,0,0,2.5341,2.5335,2.534,2.5348,2.537,2.5409,2.5421,2.5439,2.5449,2.5471,2.5473,2.5473,2.5473,2.5442,2.5429,2.542,0,0,0,2.5319,2.5309,2.5339,2.5334,2.537,2.5389,2.5421,2.5436,2.5451,2.5472,2.5473,2.5472,2.5443,2.543,2.5422,2.5409,2.5402,0,0,2.5294,2.5305,2.5304,2.5332,2.5341,2.5383,2.5387,2.542,2.5442,2.546,2.5461,2.544,2.5429,2.5421,2.5371,2.5365,0,0,0,2.5288,2.5287,2.5294,2.5308,2.5335,2.5356,2.5392,2.5405,2.5422,2.5447,2.5436,2.543,2.5426,2.5421,2.5416,2.5413,2.5469,2.5469,2.5469,2.5221,2.5251,2.525,2.5286,2.5299,2.5337,2.535,2.5373,2.5398,2.5394,2.54,2.5366,2.5359,2.5355,2.5353,2.5396,2.5396,2.5396,2.5396,2.5188,2.519,2.5225,2.5236,2.5267,2.5277,2.5313,2.533,2.5343,2.5364,2.5362,2.5382,2.5348,2.5347,2.5394,2.5394,2.5394,2.5394,2.5395,2.5146,2.5152,2.5169,2.5194,2.5209,2.5245,2.5256,2.5284,2.5309,2.5308,2.5316,2.5317,2.532,2.531,2.531,2.531,2.531,2.531,2.5309,2.5096,2.5116,2.5123,2.5152,2.5165,2.5186,2.5224,2.5237,2.5259,2.5278,2.5278,2.5302,2.534,2.5348,2.5308,2.5308,2.5308,2.5308,2.5309,2.505,2.5065,2.5075,2.5089,2.5125,2.5138,2.5174,2.5198,2.5213,2.5218,2.5243,2.5267,2.528,2.5284,2.5291,2.5238,2.5238,2.5238,2.5238,2.5014,2.5024,2.5041,2.5061,2.5083,2.5117,2.5127,2.5157,2.519,2.5201,2.5213,2.5225,2.5228,2.5239,2.5244,2.5251,2.5188,2.5188,2.5188,2.4987,2.5001,2.5004,2.5038,2.5069,2.5094,2.5104,2.5124,2.5165,2.5187,2.521,2.5212,2.5231,2.5237,2.5258,2.5265,2.5278,0,0]}]]